RSQA2 Weather Reports


Display with metric or nautical units.
time (UTC)temp
F
wind
direction
speed
MPH
gust
MPH
rain 1hr
in
rain 24hr
in
rain mn
in
humidity
%
barometer
mb
20260504175818 46 109 2.0 3.0 0.00 0.00 0.00 61 1012.7
20260504174318 45 132 0.0 3.0 0.00 0.00 0.00 61 1012.9
20260504172822 45 132 0.0 3.0 0.00 0.00 0.00 61 1013.0
20260504141324 35 271 0.0 0.0 0.00 0.00 0.00 82 1013.5
20260504045822 51 271 0.0 0.0 0.00 0.00 0.00 53 1014.7
20260504042811 52 271 1.0 2.0 0.00 0.00 0.00 47 1014.8
20260504041316 52 271 0.0 4.0 0.00 0.00 0.00 48 1014.9
20260504035814 53 271 0.0 3.0 0.00 0.00 0.00 46 1015.0
20260504032822 53 271 1.0 3.0 0.00 0.00 0.00 46 1015.1
20260504031328 52 271 1.0 4.0 0.00 0.00 0.00 46 1015.3
20260504021322 52 217 0.0 1.0 0.00 0.00 0.00 45 1015.5
20260504015825 52 217 0.0 3.0 0.00 0.00 0.00 43 1015.5
20260504014326 52 217 1.0 3.0 0.00 0.00 0.00 45 1015.6
20260504011312 52 217 1.0 4.0 0.00 0.00 0.00 45 1015.8
20260504005813 53 184 2.0 5.0 0.00 0.00 0.00 43 1015.9
20260504004313 54 190 1.0 10.0 0.00 0.00 0.00 42 1016.0
20260504002816 54 187 2.0 7.0 0.00 0.00 0.00 43 1016.0
20260504001318 54 192 1.0 8.0 0.00 0.00 0.00 41 1016.2
20260503235821 54 176 4.0 6.0 0.00 0.00 0.00 45 1016.3
20260503231314 54 194 2.0 7.0 0.00 0.00 0.00 44 1016.3
20260503225812 54 171 0.0 7.0 0.00 0.00 0.00 44 1016.5
20260503224316 54 223 4.0 7.0 0.00 0.00 0.00 45 1016.7
20260503222816 53 254 3.0 6.0 0.00 0.00 0.00 49 1016.5
20260503221320 53 218 5.0 10.0 0.00 0.00 0.00 48 1016.7
20260503215819 52 264 1.0 6.0 0.00 0.00 0.00 49 1016.9
20260503214324 52 255 1.0 9.0 0.00 0.00 0.00 50 1017.0
20260503212825 52 198 2.0 10.0 0.00 0.00 0.00 51 1017.0
20260503211311 51 213 4.0 9.0 0.00 0.00 0.00 49 1017.0
20260503205809 52 167 0.0 7.0 0.00 0.00 0.00 49 1017.0
20260503204314 51 176 0.0 7.0 0.00 0.00 0.00 50 1017.2
20260503201322 50 229 1.0 6.0 0.00 0.00 0.00 52 1017.2
20260503195820 50 218 1.0 5.0 0.00 0.00 0.00 53 1017.1
20260503194322 50 246 0.0 3.0 0.00 0.00 0.00 54 1017.2
20260503184318 46 184 0.0 4.0 0.00 0.00 0.00 59 1017.1
20260503180827 44 135 1.0 2.0 0.00 0.00 0.00 65 1016.8